Printer-friendly version

IAU Minor Planet Center

Minor Planet Center

MPEC 2004-H68 : 2004 HH33

The following Minor Planet Electronic Circular may be linked-to from your own Web pages, but must not otherwise be redistributed electronically.


Read MPEC 2004-H67 Read MPEC 2004-H69


M.P.E.C. 2004-H68                                Issued 2004 Apr. 24, 22:14 UT

     The Minor Planet Electronic Circulars contain information on unusual
         minor planets and routine data on comets.  They are published
   on behalf of Commission 20 of the International Astronomical Union by the
          Minor Planet Center, Smithsonian Astrophysical Observatory,
                          Cambridge, MA 02138, U.S.A.

         Supported in part by the Steven and Michele Kirsch Foundation
             Prepared using the Tamkin Foundation Computer Network

                              MPC@CFA.HARVARD.EDU
          URL http://cfa-www.harvard.edu/iau/mpc.html  ISSN 1523-6714

                                   2004 HH33

Observations:
     K04H33H* C2004 04 23.47471 14 16 09.21 +09 55 53.6          19.8   EH068608
     K04H33H  C2004 04 23.48561 14 16 05.81 +09 54 55.3          19.9   EH068608
     K04H33H  C2004 04 23.49691 14 16 02.24 +09 53 54.5          19.9   EH068608
     K04H33H  C2004 04 23.93484 14 13 52.18 +09 14 05.3          17.8 R EH068J95
     K04H33H  C2004 04 23.94056 14 13 50.38 +09 13 34.2          18.9 R EH068J95
     K04H33H  C2004 04 23.94634 14 13 48.59 +09 13 02.9          18.8 R EH068J95
     K04H33H  C2004 04 24.20596 14 12 30.97 +08 49 33.6          18.3 R EH068651
     K04H33H  C2004 04 24.20779 14 12 30.41 +08 49 23.5          18.1 R EH068651
     K04H33H  C2004 04 24.20920 14 12 29.99 +08 49 15.5          18.2 R EH068651
     K04H33H  C2004 04 24.29488 14 12 03.25 +08 41 24.0          18.8 R EH068G70
     K04H33H  C2004 04 24.29782 14 12 01.89 +08 41 08.0          18.9   EH068704
     K04H33H  C2004 04 24.30291 14 12 00.77 +08 40 39.8          19.1 R EH068G70
     K04H33H  C2004 04 24.30783 14 11 58.69 +08 40 12.7          18.4   EH068704
     K04H33H  C2004 04 24.30837 14 11 59.03 +08 40 10.6          20.1 R EH068G70
     K04H33H  C2004 04 24.31855 14 11 55.27 +08 39 14.1          18.6   EH068704
     K04H33H  C2004 04 24.32879 14 11 52.08 +08 38 17.3          18.8   EH068704
     K04H33H  C2004 04 24.36203 14 11 41.72 +08 35 16.7          18.2 R EH068926
     K04H33H  C2004 04 24.36293 14 11 41.40 +08 35 10.4          18.5 R EH068926
     K04H33H  C2004 04 24.36383 14 11 41.07 +08 35 04.9          18.4 R EH068926
     K04H33H  C2004 04 24.50505 14 10 57.99 +08 22 11.0          19.3   EH068608
     K04H33H  C2004 04 24.51637 14 10 54.50 +08 21 08.2          19.4   EH068608
     K04H33H  C2004 04 24.52771 14 10 50.88 +08 20 05.1          19.6   EH068608
     K04H33H  C2004 04 24.85911 14 09 13.34 +07 49 07.4          18.4 R EH068J87
     K04H33H  C2004 04 24.86131 14 09 12.55 +07 48 55.1          19.1 R EH068J87
     K04H33H  C2004 04 24.86351 14 09 11.95 +07 48 43.4          18.5 R EH068J87

Observer details:
608 Haleakala-NEAT/MSSS.  Observers S. Pravdo, M. Hicks, K. Lawrence,
    D. MacDonald, P. Kervin, J. Africano, R. Maeda.  1.2-m reflector + CCD.
651 Grasslands Observatory, Tucson.  Observer J. E. McGaha.  0.62-m f/5.1
    Newtonian + CCD.
704 Lincoln Laboratory ETS, New Mexico.  Observers M. Blythe, F. Shelly,
    M. Bezpalko, R. Huber, L. Manguso, D. Torres, R. Kracke, M. McCleary,
    H. Stange, A. Milner.  Measurers J. Stuart, R. Sayer, J. Evans, J. Kommers.
    1.0-m f/2.15 reflector + CCD.
926 Tenagra II Observatory.  Observers P. R. Holvorcem, M. Schwartz.  0.81-m
    f/7 Ritchey-Chretien + CCD.
G70 Francisquito Observatory, Los Angeles.  Observer R. E. Jones.  0.30-m
    f/6.7 reflector + CCD.
J87 La Canada.  Observer J. Lacruz.  0.30-m f/3.3 Schmidt-Cassegrain + CCD.
J95 Great Shefford.  Observer P. Birtwhistle.  0.30-m f/6.3 Schmidt-Cassegrain
    + CCD.

Orbital elements:
2004 HH33
Epoch 2004 Apr. 5.0 TT = JDT 2453100.5                  MPC
M 345.65540              (2000.0)            P               Q
n   0.61215604     Peri.  175.14109     -0.80755391     +0.50809476
a   1.3737086      Node    40.39323     -0.55550339     -0.48462235
e   0.1146122      Incl.   27.52659     -0.19817333     -0.71202591
P   1.61           H   20.9           G   0.15
From 25 observations 2004 Apr. 23-24.

Ephemeris:
2004 HH33                a,e,i = 1.37, 0.11, 28                  q = 1.2163
Date    TT    R. A. (2000) Decl.     Delta      r     Elong.  Phase     V
2004 04 25    14 08.48   +07 36.4    0.222    1.216   159.2    17.1    19.0
2004 05 05    13 18.05   -08 52.5    0.223    1.217   156.6    19.2    19.0
2004 05 15    12 35.87   -23 04.4    0.258    1.219   139.7    32.5    19.8
2004 05 25    12 07.84   -32 43.2    0.315    1.224   125.8    42.2    20.5
2004 06 04    11 53.27   -39 08.0    0.382    1.231   116.0    47.8    21.1
2004 06 14    11 49.26   -43 45.5    0.453    1.240   109.1    50.7    21.5
2004 06 24    11 53.59   -47 27.4    0.523    1.251   104.0    52.0    21.9

Kyle E. Smalley              (C) Copyright 2004 MPC           M.P.E.C. 2004-H68

Read MPEC 2004-H67 Read MPEC 2004-H69


Our Web policy. Index to the CBAT/MPC/ICQ pages.


Valid HTML 4.01!